Cozumel, Mexico

2:03 AM EST on August 21, 2017 (GMT -0500)
Cozumel

Weather History for MMCZ - March, 2014

Change the Weather History Date:

Tuesday, March 18, 2014

  Actual Average Record
Temperature  
Mean Temperature 68 °F -  
Max Temperature 75 °F 84 °F 89 °F (2003)
Min Temperature 62 °F 72 °F 60 °F (2011)
Cooling Degree Days 4    
Growing Degree Days 18 (Base 50)    
Moisture  
Dew Point 63 °F    
Average Humidity 82    
Maximum Humidity 100    
Minimum Humidity 65    
Precipitation  
Precipitation 0.00 in - - ()
Sea Level Pressure  
Sea Level Pressure 29.94 in    
Wind  
Wind Speed 9 mph ()    
Max Wind Speed 18 mph    
Max Gust Speed -    
Visibility 7.5 miles    
Events      
Averages and records for this station are not official NWS values.
T = Trace of Precipitation, MM = Missing Value Source: Averaged Metar Reports

Daily Weather History Graph

Daily Weather History Graph

Search for Another Location

Airport or City:

Trip Planner

Search our weather history database for the weather conditions in past years. The results will help you decide how hot, cold, wet, or windy it might be!

Date:

Astronomy

Mar. 18, 2014 Rise Set
Actual Time 5:53 AM CST 5:58 PM CST
Civil Twilight 5:31 AM CST 6:20 PM CST
Nautical Twilight 5:05 AM CST 6:45 PM CST
Astronomical Twilight 4:40 AM CST 7:11 PM CST
Moon 7:53 PM CST (3/18) 6:59 AM CST (3/18)
Length of Visible Light 12h 48m
Length of Day
12h 04m
Waning Gibbous, 96% of the Moon is Illuminated
Mar 18
Waning Gibbous
Mar 23
Last Quarter
Mar 30
New
Apr 7
First Quarter
Apr 15
Full

Hourly Weather History & Observations

Time (CST) Temp. Dew Point Humidity Pressure Visibility Wind Dir Wind Speed Gust Speed Precip Events Conditions
12:42 AM 66.2 °F 62.6 °F 88% 29.92 in 7.0 mi NW 18.4 mph - N/A   Scattered Clouds
1:42 AM 66.2 °F 62.6 °F 88% 29.91 in 7.0 mi NW 15.0 mph - N/A   Scattered Clouds
2:41 AM 66.2 °F 60.8 °F 83% 29.92 in 7.0 mi NW 13.8 mph - N/A   Scattered Clouds
3:43 AM 66.2 °F 60.8 °F 83% 29.89 in 7.0 mi NNW 11.5 mph - N/A   Scattered Clouds
4:40 AM 64.4 °F 60.8 °F 88% 29.90 in 7.0 mi NW 11.5 mph - N/A   Scattered Clouds
5:43 AM 64.4 °F 60.8 °F 88% 29.88 in 7.0 mi NNW 10.4 mph - N/A   Scattered Clouds
6:41 AM 66.2 °F 60.8 °F 83% 29.94 in 7.0 mi NNW 11.5 mph - N/A   Scattered Clouds
7:50 AM 68.0 °F 64.4 °F 88% 29.97 in 8.0 mi NW 11.5 mph - N/A   Scattered Clouds
8:54 AM 69.8 °F 60.8 °F 73% 30.02 in 8.0 mi NW 11.5 mph - N/A   Scattered Clouds
9:52 AM 69.8 °F 62.6 °F 78% 30.00 in 8.0 mi NNW 8.1 mph - N/A   Scattered Clouds
10:50 AM 73.4 °F 62.6 °F 69% 29.99 in 8.0 mi NW 8.1 mph - N/A   Mostly Cloudy
11:50 AM 73.4 °F 62.6 °F 69% 29.96 in 8.0 mi NW 4.6 mph - N/A   Mostly Cloudy
12:49 PM 73.4 °F 62.6 °F 69% 29.94 in 8.0 mi NW 6.9 mph - N/A   Mostly Cloudy
1:42 PM 75.2 °F 62.6 °F 65% 29.93 in 8.0 mi North 4.6 mph - N/A   Mostly Cloudy
2:52 PM 73.4 °F 62.6 °F 69% 29.92 in 8.0 mi East 8.1 mph - N/A   Mostly Cloudy
3:40 PM 73.4 °F 64.4 °F 73% 29.93 in 8.0 mi NNE 11.5 mph - N/A   Mostly Cloudy
4:44 PM 73.4 °F 64.4 °F 73% 29.93 in 8.0 mi ENE 9.2 mph - N/A   Scattered Clouds
5:45 PM 71.6 °F 64.4 °F 78% 29.92 in 8.0 mi ENE 9.2 mph - N/A   Scattered Clouds
6:48 PM 68.0 °F 64.4 °F 88% 29.95 in 7.0 mi ENE 4.6 mph - N/A   Clear
7:44 PM 68.0 °F 64.4 °F 88% 29.97 in 7.0 mi Calm Calm - N/A   Clear
8:46 PM 66.2 °F 64.4 °F 94% 29.99 in 7.0 mi East 3.5 mph - N/A   Clear
10:12 PM 62.6 °F 62.6 °F 100% 29.98 in 7.0 mi East 3.5 mph - N/A   Clear
10:44 PM 62.6 °F 62.6 °F 100% 29.98 in 7.0 mi Calm Calm - N/A   Clear
11:46 PM 64.4 °F 64.4 °F 100% 29.93 in 7.0 mi Calm Calm - N/A   Clear